Вернуться в каталог

STARLINK-32288

АктивенСвязьVLEO
NORAD 60943·PAYLOAD·🇺🇸 United States

Запущен Aug 31, 2024 с Vandenberg Space Force Base

Loading…

Ближайшие Пролёты (ближайшие 24 часа)

TLE

СвежийSource: CelesTrak SupGP

Эпоха: Sep 14, 2026, 19:32 UTC

1 60943C 24155V   26257.81437500 -.00017457  00000+0 -51610-3 0  2577
2 60943  53.1579 328.0154 0001267  81.6790 206.9766 15.34378902    13

Отслеживайте STARLINK-32288 в реальном времени с AllMySat

Download on the App Store